Regional Weather Roundup
Issued by NWS Newport/Morehead, NC

Current Version | Previous Version | Text Only | Print | Product List | Glossary On
Versions: 1 2 3 4 5 6 7 8 9 10 11 12 13 14 15 16 17 18 19 20 21 22 23 24 25 26 27 28 29 30 31 32 33 34 35 36 37 38 39 40 41 42 43 44 45 46 47 48 49 50
000
ASUS42 KMHX 042226
RWRMHX
WEATHER ROUNDUP FOR EASTERN NORTH CAROLINA
NATIONAL WEATHER SERVICE NEWPORT/MOREHEAD CITY NC
600 PM EDT FRI SEP 04 2015

NOTE: "FAIR" INDICATES FEW OR NO CLOUDS BELOW 12,000 FEET
WITH NO SIGNIFICANT WEATHER AND/OR OBSTRUCTIONS TO VISIBILITY

NCZ015>017-031-032-045>047-102-103-042300-
NORTH COAST

CITY           SKY/WX    TMP DP  RH WIND       PRES   REMARKS
EDENTON        CLOUDY    79  70  74 NE5       29.99S
ELIZABETH CITY LGT RAIN  80  71  74 NE13      30.00R
KITTY HAWK     PTCLDY    82  72  73 NE8       29.97R
MANTEO         PTSUNNY   80  73  80 NE13      29.98R

$$

NCZ045>047-081-094-103-104-042300-
CENTRAL COAST

CITY           SKY/WX    TMP DP  RH WIND       PRES   REMARKS
FRISCO         MOSUNNY   83  73  72 NE8       29.95R
SWANQUARTER      N/A     82 N/A N/A N5G10     29.94R

$$

NCZ095-097-098-100-101-042300-
SOUTHERN COAST

CITY           SKY/WX    TMP DP  RH WIND       PRES   REMARKS
BEAUFORT       SUNNY     85  75  72 SW5       29.94R
CEDAR ISLAND     N/A     84 N/A N/A N7        30.00R
JACKSONVILLE   SUNNY     89  69  51 NE3       29.94R
PINEY ISLAND   CLEAR    N/A N/A N/A N5        29.94R
WILMINGTON     SUNNY     87  66  49 SE7       29.94R


$$

NCZ011>013-027>030-043-044-078>080-089-090>093-098-042300-
COASTAL PLAIN

CITY           SKY/WX    TMP DP  RH WIND       PRES   REMARKS
AHOSKIE        CLOUDY    80  71  74 CALM      30.00F
CLINTON        MOSUNNY   92  71  50 N8        29.97R
ELIZABETHTOWN  SUNNY     89  69  50 CALM      29.96R
GOLDSBORO      LGT RAIN  76  70  83 N2        29.95F
GREENVILLE     CLOUDY    81  72  74 N7        29.99S
HAVELOCK       MOSUNNY   86  68  54 NW10      29.96R THUNDER
KENANSVILLE      N/A     89  70  53 NE3       29.96R
KINSTON        PTSUNNY   81  70  69 N3        29.97R
NEW BERN       MOSUNNY   84  69  60 N7        29.97R
RICHLANDS      SUNNY     88  70  55 E3        29.95R
ROCKY MOUNT    CLOUDY    78  70  76 N7        30.00S
WASHINGTON     CLOUDY    81  69  66 N9        29.97R
WHITEVILLE     SUNNY     90  69  50 E6        29.94S

$$

AMZ130-135-150-152-154-156-158-170-250-252-270-ANZ085-086-088-633-658-670-042300-
MARINE OBSERVATIONS

STATION/POSITION TIME  TEMP    WIND        PRES    WAVE   SWELL
                       AIR SEA DIR/SP/G            HT/PER HT/PER
                 (UTC) (F)     (DEG/KT/KT) (MB)    (FT/S) (FT/S)
CHESAPEAKE LIGHT 2200   80      60/ 18/ 19 1016.8
64 E VA BEACH    2150   81 81   60/ 17/ 19 1014.8    2/ 3   2/10
DUCK             2200   80 81   40/ 15/ 17 1014.7
2 E DUCK         2111      80                N/A     3/ 3
OREGON INLET     2200   80 83   30/ 12/ 16 1014.8
13E OREGON INLT  2200      81                N/A     2/ 3
HATTERAS CG      2200   82 84   20/ 13/ 15 1014.0
DIAMOND BUOY     2150   83 85   20/  8/  8 1014.0    1/ 4   2/12
CAPE LOOKOUT     2200   84     220/  3/  4 1013.6
BEAUFORT LAB     2200   85 82  210/  3/  5 1013.3
30 SE NEW RVR IN 2108   83 83  160/  2/  4 1014.0
30 SE NEW RVR IN 2125      85                N/A     1/12
27 SE WRIGHTSVLE 2200   81 84  170/  2/  2   N/A
5 SE WRIGHTSVLE  2108   84 83  160/  6/  8 1013.9
225 S CAPE HAT   2150   83 85   10/  6/ 10 1012.8    1/11   2/11
41 SE CHARLESTON 2150   83 85   90/  4/  6 1013.9    1/12   2/12

$$



USA.gov is the U.S. government's official web portal to all federal, state and local government web resources and services.